When you browse on this site, cookies collect data to enhance your experience and personalize the content and advertising you see.
Visit our Privacy Policy to learn more. By continuing to use the site, you agree to this use of cookies and data.
  • In Austria
  • List of Countries
  • For 7 days
  • Water Temperature
  • Satellite Maps
  • Weather Map
  • News
  • Weather Widgets
  • user-avatar
    Login

    Hourly Weather Chipinge

    Today, 11 December, Tuesday

    Time Temperature Precipitation Wind Pressure Humidity
    00:00 +18°C° 0.1 mm 2 mps 671 mmHg 91%
    01:00 +18°C° 0.1 mm 2 mps 672 mmHg 91%
    02:00 +17°C° 0 mm 2 mps 672 mmHg 91%
    03:00 +17°C° 0 mm 2 mps 672 mmHg 91%
    04:00 +17°C° 0 mm 2 mps 672 mmHg 91%
    05:00 +17°C° 0 mm 2 mps 672 mmHg 91%
    06:00 +18°C° 0 mm 2 mps 672 mmHg 86%
    07:00 +18°C° 0 mm 2 mps 673 mmHg 81%
    08:00 +21°C° 0 mm 1 mps 673 mmHg 75%
    09:00 +21°C° 0.1 mm 2 mps 673 mmHg 72%
    10:00 +23°C° 0.1 mm 2 mps 673 mmHg 68%
    11:00 +24°C° 0.1 mm 2 mps 673 mmHg 64%
    12:00 +23°C° 0.1 mm 2 mps 672 mmHg 68%
    13:00 +21°C° 0.1 mm 3 mps 672 mmHg 71%
    14:00 +20°C° 0.1 mm 3 mps 671 mmHg 74%
    15:00 +20°C° 0.1 mm 3 mps 671 mmHg 74%
    16:00 +20°C° 0.1 mm 2 mps 671 mmHg 73%
    17:00 +20°C° 0.1 mm 2 mps 671 mmHg 72%
    18:00 +19°C° 0 mm 2 mps 671 mmHg 76%
    19:00 +19°C° 0 mm 1 mps 671 mmHg 80%
    20:00 +18°C° 0 mm 1 mps 672 mmHg 84%
    21:00 +18°C° 0 mm 1 mps 672 mmHg 85%
    22:00 +18°C° 0 mm 1 mps 672 mmHg 86%
    23:00 +16°C° 0 mm 1 mps 672 mmHg 86%

    Tomorrow, 12 December, Wednesday

    Time Temperature Precipitation Wind Pressure Humidity
    00:00 +16°C° 0 mm 1 mps 672 mmHg 87%
    01:00 +16°C° 0 mm 1 mps 671 mmHg 88%
    02:00 +14°C° 0 mm 0 mps 671 mmHg 89%
    03:00 +14°C° 0 mm 0 mps 671 mmHg 90%
    04:00 +14°C° 0 mm 0 mps 671 mmHg 91%
    05:00 +14°C° 0 mm 0 mps 671 mmHg 92%
    06:00 +17°C° 0 mm 0 mps 672 mmHg 81%
    07:00 +19°C° 0 mm 0 mps 673 mmHg 70%
    08:00 +22°C° 0 mm 0 mps 674 mmHg 59%
    09:00 +24°C° 0 mm 0 mps 674 mmHg 52%
    10:00 +28°C° 0 mm 1 mps 674 mmHg 44%
    11:00 +30°C° 0 mm 1 mps 674 mmHg 37%
    12:00 +30°C° 0 mm 1 mps 673 mmHg 35%
    13:00 +31°C° 0 mm 1 mps 673 mmHg 32%
    14:00 +31°C° 0 mm 1 mps 672 mmHg 30%
    15:00 +30°C° 0 mm 1 mps 671 mmHg 32%
    16:00 +30°C° 0 mm 1 mps 671 mmHg 34%
    17:00 +29°C° 0 mm 1 mps 670 mmHg 35%
    18:00 +26°C° 0 mm 1 mps 671 mmHg 42%
    19:00 +24°C° 0 mm 1 mps 671 mmHg 49%
    20:00 +22°C° 0 mm 1 mps 671 mmHg 56%
    21:00 +21°C° 0 mm 1 mps 671 mmHg 59%
    22:00 +21°C° 0 mm 1 mps 671 mmHg 63%
    23:00 +20°C° 0 mm 1 mps 671 mmHg 66%

    Day after tomorrow, 13 December, Thursday

    Time Temperature Precipitation Wind Pressure Humidity
    00:00 +20°C° 0 mm 1 mps 671 mmHg 68%
    01:00 +19°C° 0 mm 1 mps 670 mmHg 70%
    02:00 +19°C° 0 mm 1 mps 670 mmHg 72%
    03:00 +19°C° 0 mm 1 mps 670 mmHg 71%
    04:00 +19°C° 0 mm 1 mps 670 mmHg 71%
    05:00 +19°C° 0 mm 1 mps 670 mmHg 70%
    06:00 +22°C° 0 mm 1 mps 671 mmHg 60%
    07:00 +25°C° 0 mm 1 mps 672 mmHg 50%
    08:00 +28°C° 0 mm 1 mps 673 mmHg 40%
    09:00 +29°C° 0 mm 1 mps 674 mmHg 35%
    10:00 +31°C° 0 mm 2 mps 674 mmHg 30%
    11:00 +34°C° 0 mm 2 mps 674 mmHg 25%
    12:00 +34°C° 0 mm 3 mps 674 mmHg 25%
    13:00 +34°C° 0 mm 3 mps 673 mmHg 25%
    14:00 +34°C° 0 mm 3 mps 673 mmHg 25%
    15:00 +34°C° 0 mm 3 mps 672 mmHg 27%
    16:00 +33°C° 0 mm 3 mps 672 mmHg 30%
    17:00 +31°C° 0 mm 3 mps 671 mmHg 32%
    18:00 +28°C° 0 mm 2 mps 671 mmHg 39%
    19:00 +26°C° 0 mm 2 mps 672 mmHg 46%
    20:00 +23°C° 0 mm 2 mps 672 mmHg 52%
    21:00 +23°C° 0 mm 2 mps 672 mmHg 58%
    22:00 +21°C° 0 mm 2 mps 672 mmHg 63%
    23:00 +21°C° 0 mm 1 mps 672 mmHg 69%

    14 December, Friday

    Time Temperature Precipitation Wind Pressure Humidity
    00:00 +20°C° 0 mm 1 mps 672 mmHg 72%
    01:00 +20°C° 0 mm 1 mps 671 mmHg 75%
    02:00 +19°C° 0 mm 1 mps 671 mmHg 79%
    03:00 +19°C° 0 mm 1 mps 671 mmHg 79%
    04:00 +19°C° 0 mm 1 mps 671 mmHg 80%
    05:00 +18°C° 0 mm 1 mps 671 mmHg 80%
    06:00 +21°C° 0 mm 1 mps 672 mmHg 69%
    07:00 +24°C° 0 mm 1 mps 674 mmHg 58%
    08:00 +27°C° 0 mm 1 mps 675 mmHg 47%
    09:00 +28°C° 0 mm 2 mps 675 mmHg 41%
    10:00 +29°C° 0 mm 2 mps 675 mmHg 36%
    11:00 +31°C° 0 mm 3 mps 675 mmHg 31%
    12:00 +31°C° 0 mm 3 mps 674 mmHg 31%
    13:00 +32°C° 0 mm 4 mps 674 mmHg 31%
    14:00 +33°C° 0 mm 4 mps 673 mmHg 31%
    15:00 +32°C° 0 mm 4 mps 673 mmHg 34%
    16:00 +30°C° 0 mm 4 mps 672 mmHg 37%
    17:00 +29°C° 0 mm 4 mps 672 mmHg 39%
    18:00 +27°C° 0 mm 3 mps 672 mmHg 47%
    19:00 +25°C° 0 mm 3 mps 672 mmHg 55%
    20:00 +23°C° 0 mm 2 mps 672 mmHg 62%
    21:00 +21°C° 0 mm 2 mps 672 mmHg 68%
    22:00 +20°C° 0 mm 2 mps 672 mmHg 74%
    23:00 +19°C° 0 mm 2 mps 672 mmHg 80%

    15 December, Saturday

    Time Temperature Precipitation Wind Pressure Humidity
    00:00 +19°C° 0 mm 1 mps 672 mmHg 82%
    01:00 +19°C° 0 mm 1 mps 671 mmHg 85%
    02:00 +18°C° 0 mm 1 mps 671 mmHg 88%
    03:00 +18°C° 0 mm 1 mps 671 mmHg 89%
    04:00 +16°C° 0 mm 1 mps 671 mmHg 89%
    05:00 +16°C° 0 mm 1 mps 672 mmHg 90%
    06:00 +20°C° 0 mm 1 mps 673 mmHg 78%
    07:00 +22°C° 0 mm 1 mps 674 mmHg 67%
    08:00 +25°C° 0 mm 1 mps 675 mmHg 56%
    09:00 +27°C° 0 mm 1 mps 675 mmHg 49%
    10:00 +28°C° 0 mm 2 mps 675 mmHg 42%
    11:00 +30°C° 0 mm 2 mps 675 mmHg 35%
    12:00 +31°C° 0 mm 2 mps 674 mmHg 34%
    13:00 +31°C° 0 mm 2 mps 673 mmHg 32%
    14:00 +32°C° 0 mm 2 mps 673 mmHg 30%
    15:00 +31°C° 0 mm 2 mps 672 mmHg 32%
    16:00 +30°C° 0 mm 2 mps 672 mmHg 33%
    17:00 +30°C° 0 mm 2 mps 671 mmHg 35%
    18:00 +27°C° 0 mm 2 mps 671 mmHg 41%
    19:00 +25°C° 0 mm 2 mps 671 mmHg 47%
    20:00 +23°C° 0 mm 2 mps 671 mmHg 53%
    21:00 +22°C° 0 mm 1 mps 671 mmHg 57%
    22:00 +21°C° 0 mm 1 mps 671 mmHg 61%
    23:00 +21°C° 0 mm 1 mps 671 mmHg 66%

    16 December, Sunday

    Time Temperature Precipitation Wind Pressure Humidity
    00:00 +20°C° 0 mm 1 mps 671 mmHg 68%
    01:00 +20°C° 0 mm 1 mps 670 mmHg 70%
    02:00 +20°C° 0 mm 1 mps 670 mmHg 72%
    03:00 +20°C° 0 mm 1 mps 671 mmHg 73%
    04:00 +19°C° 0 mm 1 mps 671 mmHg 73%
    05:00 +19°C° 0 mm 1 mps 671 mmHg 74%
    06:00 +22°C° 0 mm 1 mps 672 mmHg 65%
    07:00 +25°C° 0 mm 1 mps 673 mmHg 57%
    08:00 +28°C° 0 mm 1 mps 674 mmHg 48%
    09:00 +29°C° 0 mm 1 mps 674 mmHg 44%
    10:00 +31°C° 0 mm 2 mps 674 mmHg 40%
    11:00 +33°C° 0 mm 3 mps 674 mmHg 36%
    12:00 +34°C° 0 mm 3 mps 673 mmHg 35%
    13:00 +34°C° 0 mm 3 mps 673 mmHg 33%
    14:00 +35°C° 0 mm 3 mps 672 mmHg 32%
    15:00 +34°C° 0 mm 3 mps 672 mmHg 33%
    16:00 +33°C° 0 mm 3 mps 672 mmHg 34%
    17:00 +33°C° 0 mm 3 mps 671 mmHg 35%
    18:00 +29°C° 0 mm 3 mps 671 mmHg 44%
    19:00 +27°C° 0 mm 3 mps 671 mmHg 52%
    20:00 +24°C° 0 mm 2 mps 672 mmHg 60%
    21:00 +23°C° 0 mm 2 mps 672 mmHg 68%
    22:00 +21°C° 0 mm 2 mps 672 mmHg 75%
    23:00 +21°C° 0 mm 1 mps 672 mmHg 83%
    Show more